NOAA NWS Hourly Roundups by Site

Regional Weather Roundup for Bismarck, ND

To Select Another Site Choose from List

Select Site:  

000
ASUS43 KBIS 202210
RWRBIS

NWR BROADCAST TEXT
NATIONAL WEATHER SERVICE BISMARCK ND
500 PM CDT WED JUN 20 2018

NOTE: "FAIR" INDICATES FEW OR NO CLOUDS BELOW 12,000 FEET WITH NO
SIGNIFICANT WEATHER AND/OR OBSTRUCTIONS TO VISIBILITY.


CITY           SKY/WX    TMP DP  RH WIND       PRES   REMARKS
WILLISTON      PTSUNNY   81  46  29 SW5       30.07S
MINOT          MOSUNNY   82  51  34 NW8       30.01F
MINOT AFB      MOSUNNY   81  47  30 NW6       30.00F
BISMARCK       PTSUNNY   80  51  36 VRB3      30.02F
DICKINSON      PTSUNNY   75  52  44 NE8       30.07F
GARRISON         N/A     79  50  36 NW9       30.03F
HETTINGER ARPT PTSUNNY   76  50  40 N10       30.10S
JAMESTOWN      CLOUDY    79  51  37 N6        29.98S
CARRINGTON     FAIR      79  54  41 N7        30.02S
HAZEN          FAIR      79  52  38 N6G14     30.05F
LINTON           N/A     75  57  53 NE8       30.04S
MANDAN         FAIR      77  54  44 N7        30.04S
OAKES          FAIR      79  54  41 NE13      29.94F
RUGBY          FAIR      82  48  30 N9        29.99F
STANLEY          N/A     77  48  36 VRB5      30.09F
TIOGA          FAIR      77  50  38 NW5       30.09S
WATFORD CITY   FAIR      79  46  31 N7        30.06F
$$

CITY           SKY/WX    TMP DP  RH WIND       PRES   REMARKS
GRAND FORKS    PTSUNNY   83  54  36 N10       29.93F
GRAND FORKS AF PTSUNNY   83  53  35 N8        29.95F
DEVILS LAKE    FAIR      81  50  33 N9        30.00F
FARGO          FAIR      84  54  35 N14       29.91F
CANDO          FAIR      82  54  36 CALM      30.02F
CAVALIER       FAIR      86  50  28 N7        29.94F
GRAFTON        FAIR      84  50  30 N6        29.96F
GWINNER          N/A     79  54  41 CALM      29.93F
LANGDON        FAIR      82  52  34 NE8       30.01S
ROLLA          FAIR      81  45  28 SE3       30.03S
WALHALLA       FAIR      84  52  32 CALM      29.96S
$$

CITY           SKY/WX    TMP DP  RH WIND       PRES   REMARKS
ABERDEEN       PTSUNNY   79  53  40 N10       29.93F
MOBRIDGE       CLOUDY    79  56  45 N8        29.99F
BUFFALO          N/A     74  49  41 N8        30.05F
RAPID CITY     CLOUDY    66  58  75 N12       30.12F
GLASGOW        MOSUNNY   82  47  29 VRB7      30.08F
SIDNEY         CLOUDY    77  50  38 N9        30.08S
WOLF POINT     PTSUNNY   83  48  29 CALM      30.07F
GLENDIVE       CLOUDY    75  51  43 E6        30.11S
MILES CITY     MOSUNNY   72  57  59 SW10      30.11F
BAKER          CLOUDY    74  52  46 N9        30.13F
$$

CITY           SKY/WX    TMP DP  RH WIND       PRES   REMARKS
BILLINGS       MOSUNNY   71  51  49 CALM      30.14F
GREAT FALLS    SUNNY     74  48  39 S5        30.10F
REGINA         MOSUNNY   81  46  30 W7        30.05F
ESTEVAN        PTSUNNY   81  48  32 NW7       30.05S
$$



 

View Past Reports for Bismarck, ND.

Products Courtesy of NOAA-NWS
NWS Information Parsing Script by Ken True at Saratoga Weather - Script by SE Lincoln Weather.